Preview of NWS' New Version of Forecast
This preview is not operational and should not be used for support decisions.

Regional Weather Roundup (RWR)

Issued by National Weather Service (NWS)

                            
000
ASUS46 KPQR 191610
RWROR 

OREGON REGIONAL WEATHER ROUNDUP
NATIONAL WEATHER SERVICE PORTLAND OR
900 AM PDT MON AUG 19 2019

NOTE: "FAIR" INDICATES FEW OR NO CLOUDS BELOW 12,000 FEET WITH
NO SIGNIFICANT WEATHER AND/OR OBSTRUCTIONS TO VISIBILITY.

ORZ001>013-191700-
NORTHWEST OREGON

  
CITY           SKY/WX    TMP DP  RH WIND       PRES   REMARKS
ASTORIA        MOSUNNY   63  59  87 E5        30.00R                  
TILLAMOOK      SUNNY     61  54  77 CALM      30.03R                  
NEWPORT        CLOUDY    59  57  94 NE3       30.04R                  
FLORENCE       CLOUDY    63  54  72 CALM      30.01R                  
PORTLAND       PTSUNNY   63  54  72 CALM      30.01R                  
VANCOUVER WA   CLOUDY    63  54  72 CALM      30.01R                  
SCAPPOOSE      CLOUDY    63  54  72 CALM      30.00R                  
HILLSBORO      CLOUDY    63  53  70 CALM      30.01R                  
AURORA         CLOUDY    63  54  72 E3        30.02S                  
MCMINNVILLE    CLOUDY    62  55  77 E3        30.01R                  
SALEM          CLOUDY    63  54  72 NE3       30.00S                  
CORVALLIS      CLOUDY    60  55  83 CALM      30.02R                  
EUGENE         CLOUDY    61  54  77 CALM      30.02R                  
CRESWELL       CLOUDY    59  55  88 CALM      30.00S                  
$$

ORZ021-028-191700-
SOUTHWEST OREGON

  
CITY           SKY/WX    TMP DP  RH WIND       PRES   REMARKS
NORTH BEND     PTSUNNY   64  58  80 N6        30.02R                  
BROOKINGS      CLOUDY    54  53  97 S5        30.00R FOG              
ROSEBURG       CLOUDY    62  53  72 CALM      30.01R                  
SEXTON SUMMIT  SUNNY     61  52  72 SE3       30.03R                  
GRANTS PASS    FAIR      66  54  63 CALM      30.00S                  
MEDFORD        SUNNY     68  52  56 CALM      29.96R                  
$$

ORZ014>016-041-191700-
COLUMBIA GORGE

  
CITY           SKY/WX    TMP DP  RH WIND       PRES   REMARKS
TROUTDALE      CLOUDY    63  55  75 CALM      30.01R                  
HOOD RIVER     SUNNY     66  54  63 NW13      29.95R                  
THE DALLES     SUNNY     70  55  59 NW20G28   29.91R                  
$$

ORZ029>031-041-044-049-050-061>064-502-503-505>511-191700-
EASTERN OREGON

  
CITY           SKY/WX    TMP DP  RH WIND       PRES   REMARKS
MADRAS         SUNNY     64  45  48 S3        30.01S                  
REDMOND        SUNNY     67  45  45 SE3       30.01R                  
BEND           SUNNY     68  46  45 CALM      30.02R                  
PRINEVILLE     SUNNY     64  45  48 E5        30.02R                  
KLAMATH FALLS  SUNNY     64  43  46 SE7       30.06R                  
LAKEVIEW       SUNNY     65  44  46 S6        30.11S                  
HERMISTON      SUNNY     75  52  44 W18       29.89R                  
PENDLETON      SUNNY     73  43  33 VRB6      29.92R                  
JOHN DAY       SUNNY     68  43  40 W3        30.04R                  
MEACHAM        SUNNY     68  39  34 VRB5      30.02R                  
LA GRANDE      SUNNY     66  46  48 VRB3      29.98R                  
BAKER CITY     SUNNY     71  43  36 W6        29.99R                  
BURNS          SUNNY     69  40  34 SW6       30.05R                  
ROME             N/A     80  31  16 W8        30.01R                  
ONTARIO        SUNNY     74  54  49 CALM      29.92R                  
$$